(93208) = 2000 SQ123 = 2002 CG83

Discovered at Socorro on 2000-09-24 by LINEAR.

Orbit

Orbit type: Main Belt

Note: WebGL enabled browser required.

epoch2024-03-31.0
epoch JD2460400.5
perihelion date2023-04-23.69749
perihelion JD2460058.19749
argument of perihelion (°)266.79387
ascending node (°)131.89094
inclination (°)5.14828
eccentricity0.1074562
perihelion distance (AU)2.4284449
Tisserand w.r.t. Jupiter3.3
ΔV w.r.t. Earth (km/sec)9.9
semimajor axis (AU)2.7208130
mean anomaly (°)75.17369
mean daily motion (°/day)0.21961190
aphelion distance (AU)3.013
period (years)4.49
P-vector [x]0.77759769
P-vector [y]0.60662966
P-vector [z]0.16535501
Q-vector [x]-0.62520372
Q-vector [y]0.71804102
Q-vector [z]0.30583885
absolute magnitude15.57
phase slope0.15
uncertainty0
referenceMPEC 2024-C163
observations used1421
oppositions18
arc length (days)10832
first opposition used1994
last opposition used2024
residual rms (arc-secs)0.63
perturbers coarse indicatorM-v
perturbers precise indicator003Ek
first observation date used1994-06-06.0
last observation date used2024-02-01.0
computer nameMPCLINUX
JD of orbit computation2456612.635254
perihelion JD uncertainty (days)1.3543E-04
argument of perihelion uncertainty (°)6.7159E-05
ascending node uncertainty (°)5.9662E-05
inclination uncertainty (°)6.1620E-06
eccentricity uncertainty 5.1180E-08
perihelion distance uncertainty (AU)1.4514E-07
Minimum Orbit Intersection Distances (in AU)
for orbit epoch: 2460400.5, reference: E2024-GD4
Mercury2.10215
Venus1.70618
Earth1.44277
Mars0.9562
Jupiter2.37284
Saturn6.44844
Uranus15.5304
Neptune27.3953

Observations

1442 total observations over interval: 1994 06 06.22894 – 2024 02 01.391129
These data are available for download (format description).

Date (UT) J2000 RA J2000 Dec Magn Location Ref
1994 06 06.22894 15 23 52.75 -11 09 54.3 19.3 V 691 – Steward Observatory, Kitt Peak-Spacewatch MPS 51996
1994 06 06.25690 15 23 51.46 -11 09 52.5   691 – Steward Observatory, Kitt Peak-Spacewatch MPS 51996
1994 06 06.28550 15 23 50.21 -11 09 50.7   691 – Steward Observatory, Kitt Peak-Spacewatch MPS 51996
2000 09 24.41243 02 46 39.27 +08 06 01.4 19.2   704 – Lincoln Laboratory ETS, New Mexico MPS 19990
2000 09 24.42692 02 46 38.96 +08 05 58.1 20.1   704 – Lincoln Laboratory ETS, New Mexico MPS 19990
2000 09 24.44139 02 46 38.81 +08 05 53.6 20.0   704 – Lincoln Laboratory ETS, New Mexico MPS 19990
2000 09 24.45718 02 46 38.53 +08 05 49.7 19.5   704 – Lincoln Laboratory ETS, New Mexico MPS 19990
2000 09 27.32813 02 45 52.20 +07 53 46.3 18.7   704 – Lincoln Laboratory ETS, New Mexico MPS 19990
2000 09 27.34327 02 45 51.92 +07 53 41.7 19.4   704 – Lincoln Laboratory ETS, New Mexico MPS 19990
2000 09 27.35848 02 45 51.63 +07 53 36.7 19.1   704 – Lincoln Laboratory ETS, New Mexico MPS 19990
2000 09 27.37376 02 45 51.24 +07 53 32.8 18.8   704 – Lincoln Laboratory ETS, New Mexico MPS 19990
2000 09 27.38891 02 45 50.93 +07 53 29.0 18.7   704 – Lincoln Laboratory ETS, New Mexico MPS 19990
2000 09 30.43067 02 44 46.41 +07 39 50.6 18.5 R 699 – Lowell Observatory-LONEOS MPS 25177
2000 09 30.43917 02 44 46.21 +07 39 48.2   699 – Lowell Observatory-LONEOS MPS 25177
2000 09 30.44767 02 44 45.92 +07 39 45.9   699 – Lowell Observatory-LONEOS MPS 25177
2000 09 30.45613 02 44 45.78 +07 39 43.5   699 – Lowell Observatory-LONEOS MPS 25177
2000 10 02.41403 02 43 56.36 +07 30 33.9 18.3   704 – Lincoln Laboratory ETS, New Mexico MPS 19990
2000 10 02.42910 02 43 55.91 +07 30 28.9 18.7   704 – Lincoln Laboratory ETS, New Mexico MPS 19990
2000 10 02.44537 02 43 55.45 +07 30 24.4 18.8   704 – Lincoln Laboratory ETS, New Mexico MPS 19990
2000 10 02.46104 02 43 55.05 +07 30 19.6 18.9   704 – Lincoln Laboratory ETS, New Mexico MPS 19990
2000 10 30.31278 02 24 04.01 +05 10 57.7 18.3   704 – Lincoln Laboratory ETS, New Mexico MPS 21247
2000 10 30.32676 02 24 03.26 +05 10 53.2 18.2   704 – Lincoln Laboratory ETS, New Mexico MPS 21247
2000 10 30.34106 02 24 02.49 +05 10 48.9 18.0   704 – Lincoln Laboratory ETS, New Mexico MPS 21247
2000 10 30.35536 02 24 01.69 +05 10 45.4 18.4   704 – Lincoln Laboratory ETS, New Mexico MPS 21247
2000 10 30.37061 02 24 00.92 +05 10 41.5 18.4   704 – Lincoln Laboratory ETS, New Mexico MPS 21247
2000 11 02.23237 02 21 34.13 +04 58 23.1 18.4   704 – Lincoln Laboratory ETS, New Mexico MPS 21247
2000 11 02.24635 02 21 33.31 +04 58 21.4 19.1   704 – Lincoln Laboratory ETS, New Mexico MPS 21247
2000 11 02.26029 02 21 32.64 +04 58 17.0 18.9   704 – Lincoln Laboratory ETS, New Mexico MPS 21247
2000 11 02.27622 02 21 31.71 +04 58 13.4 18.8   704 – Lincoln Laboratory ETS, New Mexico MPS 21247
2000 11 02.29035 02 21 31.05 +04 58 10.1 18.6   704 – Lincoln Laboratory ETS, New Mexico MPS 21247
2000 11 20.22281 02 07 53.06 +04 07 53.5 18.7   704 – Lincoln Laboratory ETS, New Mexico MPS 22495
2000 11 20.23948 02 07 52.38 +04 07 52.8 19.5   704 – Lincoln Laboratory ETS, New Mexico MPS 22495
2000 11 20.25407 02 07 51.73 +04 07 50.5 19.3   704 – Lincoln Laboratory ETS, New Mexico MPS 22495
2000 11 20.28325 02 07 50.68 +04 07 48.3 19.0   704 – Lincoln Laboratory ETS, New Mexico MPS 22495
2000 11 26.17361 02 04 36.96 +04 03 31.6 19.1   704 – Lincoln Laboratory ETS, New Mexico MPS 22495
2000 11 26.18824 02 04 36.47 +04 03 31.8 18.7   704 – Lincoln Laboratory ETS, New Mexico MPS 22495
2000 11 26.20800 02 04 35.89 +04 03 30.4 18.9   704 – Lincoln Laboratory ETS, New Mexico MPS 22495
2000 11 26.22265 02 04 35.39 +04 03 30.7 19.3   704 – Lincoln Laboratory ETS, New Mexico MPS 22495
2000 11 26.23965 02 04 34.86 +04 03 31.2 18.6   704 – Lincoln Laboratory ETS, New Mexico MPS 22495
2000 11 26.25442 02 04 34.43 +04 03 31.3 19.0   704 – Lincoln Laboratory ETS, New Mexico MPS 22495
2000 11 26.26921 02 04 33.99 +04 03 30.4 19.6   704 – Lincoln Laboratory ETS, New Mexico MPS 22495
2000 11 26.28418 02 04 33.47 +04 03 30.5 19.0   704 – Lincoln Laboratory ETS, New Mexico MPS 22495
2000 11 26.29898 02 04 33.05 +04 03 31.0 18.9   704 – Lincoln Laboratory ETS, New Mexico MPS 22495
2002 02 05.47412 10 41 24.44 +10 55 35.1 20.6   644 – Palomar Mountain/NEAT MPS 50246
2002 02 05.48453 10 41 24.02 +10 55 39.2 20.4   644 – Palomar Mountain/NEAT MPS 50246
2002 02 05.49501 10 41 23.54 +10 55 43.2 19.8   644 – Palomar Mountain/NEAT MPS 50246
2002 02 07.32263 10 40 06.26 +11 07 13.7 19.5   704 – Lincoln Laboratory ETS, New Mexico MPS 50246
2002 02 07.33707 10 40 05.62 +11 07 20.1 20.1   704 – Lincoln Laboratory ETS, New Mexico MPS 50246
2002 02 07.35148 10 40 04.98 +11 07 25.6 19.6   704 – Lincoln Laboratory ETS, New Mexico MPS 50246
2002 02 07.36589 10 40 04.32 +11 07 30.6 19.5   704 – Lincoln Laboratory ETS, New Mexico MPS 50246
2002 02 07.38066 10 40 03.63 +11 07 36.6 19.0   704 – Lincoln Laboratory ETS, New Mexico MPS 50246
2002 02 08.53962 10 39 12.83 +11 15 04.6 20.8   608 – Haleakala-AMOS MPS 51996
2002 02 08.55069 10 39 12.31 +11 15 08.6 20.1   608 – Haleakala-AMOS MPS 51996
2002 02 08.56146 10 39 11.79 +11 15 12.9 20.1   608 – Haleakala-AMOS MPS 51996
2002 02 10.31730 10 37 52.80 +11 26 36.4 18.8   704 – Lincoln Laboratory ETS, New Mexico MPS 50246
2002 02 10.33147 10 37 52.16 +11 26 42.1 19.0   704 – Lincoln Laboratory ETS, New Mexico MPS 50246
2002 02 10.34564 10 37 51.45 +11 26 48.1 19.0   704 – Lincoln Laboratory ETS, New Mexico MPS 50246
2002 02 10.35981 10 37 50.83 +11 26 54.3 19.5   704 – Lincoln Laboratory ETS, New Mexico MPS 50246
2002 02 10.37397 10 37 50.08 +11 26 58.8 19.5   704 – Lincoln Laboratory ETS, New Mexico MPS 50246
2002 02 12.37487 10 36 16.96 +11 40 08.5 19.6   704 – Lincoln Laboratory ETS, New Mexico MPS 51996
2002 02 12.39159 10 36 16.18 +11 40 15.6 19.4   704 – Lincoln Laboratory ETS, New Mexico MPS 51996
2002 02 12.42183 10 36 14.69 +11 40 26.9 19.7   704 – Lincoln Laboratory ETS, New Mexico MPS 51996
2002 02 12.43613 10 36 14.03 +11 40 33.1 19.5   704 – Lincoln Laboratory ETS, New Mexico MPS 51996
2002 02 16.32723 10 33 05.96 +12 06 29.6 19.0   644 – Palomar Mountain/NEAT MPS 51996
2002 02 16.40378 10 33 02.06 +12 06 59.8 19.3   644 – Palomar Mountain/NEAT MPS 51996
2002 02 16.47085 10 32 58.66 +12 07 26.5 19.7   644 – Palomar Mountain/NEAT MPS 51996
2002 02 20.24269 10 29 50.13 +12 32 34.5 18.8   704 – Lincoln Laboratory ETS, New Mexico MPS 51996
2002 02 20.25644 10 29 49.44 +12 32 40.2 19.0   704 – Lincoln Laboratory ETS, New Mexico MPS 51996
2002 02 20.27018 10 29 48.71 +12 32 45.7 18.8   704 – Lincoln Laboratory ETS, New Mexico MPS 51996
2002 02 20.28411 10 29 47.97 +12 32 51.5 19.1   704 – Lincoln Laboratory ETS, New Mexico MPS 51996
2002 02 20.29786 10 29 47.25 +12 32 56.7 19.4   704 – Lincoln Laboratory ETS, New Mexico MPS 51996
2002 02 24.27748 10 26 25.45 +12 59 03.7 19.6   644 – Palomar Mountain/NEAT MPS 51996
2002 02 24.29859 10 26 24.37 +12 59 11.9 18.9   644 – Palomar Mountain/NEAT MPS 51996
2002 02 24.32088 10 26 23.19 +12 59 20.7 19.0   644 – Palomar Mountain/NEAT MPS 51996
2002 03 03.27039 10 20 35.08 +13 42 43.4 18.6 R 703 – Catalina Sky Survey MPS 51996
2002 03 03.27855 10 20 34.81 +13 42 46.6 19.3 R 703 – Catalina Sky Survey MPS 51996
2002 03 03.28673 10 20 34.35 +13 42 49.3 18.6 R 703 – Catalina Sky Survey MPS 51996
2002 03 03.29489 10 20 33.82 +13 42 50.0 19.6 R 703 – Catalina Sky Survey MPS 51996
2002 03 09.25231 10 15 52.39 +14 16 30.5 20.2   644 – Palomar Mountain/NEAT MPS 51996
2002 03 09.30251 10 15 49.98 +14 16 49.3 19.6   704 – Lincoln Laboratory ETS, New Mexico MPS 51996
2002 03 09.31478 10 15 49.47 +14 16 50.6 19.9   644 – Palomar Mountain/NEAT MPS 51996
2002 03 09.32244 10 15 49.08 +14 16 54.4 19.9   704 – Lincoln Laboratory ETS, New Mexico MPS 51996
2002 03 09.34240 10 15 48.11 +14 17 00.1 20.2   704 – Lincoln Laboratory ETS, New Mexico MPS 51996
2002 03 09.36220 10 15 47.21 +14 17 07.1 20.1   704 – Lincoln Laboratory ETS, New Mexico MPS 51996
2002 03 09.39889 10 15 45.54 +14 17 17.2 19.5   644 – Palomar Mountain/NEAT MPS 51996
2002 03 12.36423 10 13 35.36 +14 32 29.0 19.7   644 – Palomar Mountain/NEAT MPS 51996
